Location: Unspecified
(51.0950°N, 12.9690°E)
Time: 21:28:49
(UTC+00:00)

Cosmos 676 Rocket - Pass Details

Date: 28 October 2021
Orbit: 754 x 784 km, 74.0° (Epoch: 01 December)

Event Time Altitude Azimuth Distance (km) Brightness Sun altitude
Rises 17:33:51 0° 337° (NNW) 3,235 7.5 -16.9°
Reaches altitude 10° 17:36:18 10° 343° (NNW) 2,310 6.7 -17.3°
Maximum altitude 17:41:24 50° 59° (ENE) 973 4.2 -18.1°
Enters shadow 17:43:38 31° 117° (ESE) 1,339 4.8 -18.5°
